"Pseudo-MPEC" for ZTF02Ux

Created 2019 Feb 15 23:18:11 UT using Find_Orb

Click here for an explanation of pseudo-MPECs

 
 Astrometry: 
     ZTF02Ux  C2019 02 08.47139414 05 39.45 +19 44 44.9    ~28K3 17.43gUNEOCPI41
     ZTF02Ux  C2019 02 08.47174014 05 35.95 +19 45 00.0    ~28K3 17.43gUNEOCPI41
     ZTF02Ux  C2019 02 08.47276314 05 25.65 +19 45 46.0    ~28K3 17.49gUNEOCPI41
     ZTF02Ux  C2019 02 08.47311014 05 22.09 +19 46 01.0    ~28K3 17.49gUNEOCPI41
     ZTF02Ux  C2019 02 08.49065914 02 26.06 +19 58 31.7    ~28KI 17.42gUNEOCPI41
     ZTF02Ux  C2019 02 08.49100614 02 22.65 +19 58 46.4    ~28KI 17.42gUNEOCPI41

Station data:
(I41) Palomar Mountain--ZTF  (N33.357340 W116.859780)  US/California. 1.2-m
   f/2.44 Oschin Schmidt + CCD.

Orbital elements:  ZTF02Ux
   Perigee 2019 Feb 7.506933 +/- 0.802 TT = 12:09:59 (JD 2458522.006933)
Epoch 2019 Feb  8.0 TT = JDT 2458522.5                        AutoNEOCP
M   0.60186741 +/- 55               (J2000 equator)
n   1.22066120 +/-                  Peri.  293.57944 +/- 70
a   0.01251069 +/-                  Node   254.39324 +/- 5.3
e   0.9689022 +/- 0.516             Incl.  151.86884 +/- 0.06
P 294.92d                  H 29.5   G  0.15   U 15.4  
q 58201.6730 +/- 66594    Q 0.02463232 +/- 0.177
From 6 observations 2019 Feb. 8 (28.2 min); mean residual 0".25
Residuals in arcseconds: 
190208 I41  .07-  .10+    190208 I41  .47+  .27+    190208 I41  .31-  .20-    
190208 I41  .09-  .23-    190208 I41  .30-  .12-    190208 I41  .30+  .20+    

Ephemerides (geocentric):
Date (UTC) HH   RA              Dec         delta   r     elong  mag " sig PA
---- -- -- --  -------------   -----------  ------ ------ -----  --- ---- ---
2019 02 15 23  11 09 12.915   +27 49 52.57  884844 0.9932 157.1 19.4 170' 104
2019 02 16 00  11 08 57.514   +27 49 48.37  887810 0.9932 157.1 19.4 172' 104
2019 02 16 01  11 08 42.216   +27 49 44.01  890771 0.9933 157.2 19.4 173' 104
2019 02 16 02  11 08 27.019   +27 49 39.49  893727 0.9933 157.3 19.4 174' 104
2019 02 16 03  11 08 11.923   +27 49 34.80  896678 0.9933 157.3 19.4 176' 104
2019 02 16 04  11 07 56.925   +27 49 29.95  899623 0.9934 157.4 19.4 177' 104
2019 02 16 05  11 07 42.025   +27 49 24.95  902563 0.9934 157.4 19.5 179' 104
2019 02 16 06  11 07 27.222   +27 49 19.79  905498 0.9934 157.5 19.5 180' 103
2019 02 16 07  11 07 12.514   +27 49 14.47  908429 0.9934 157.6 19.5 181' 103
2019 02 16 08  11 06 57.901   +27 49 09.01  911354 0.9935 157.6 19.5 183' 103
2019 02 16 09  11 06 43.381   +27 49 03.40  914274 0.9935 157.7 19.5 184' 103
2019 02 16 10  11 06 28.953   +27 48 57.64  917189 0.9935 157.7 19.5 186' 103
2019 02 16 11  11 06 14.617   +27 48 51.74  920099 0.9936 157.8 19.5 187' 103
2019 02 16 12  11 06 00.371   +27 48 45.70  923004 0.9936 157.9 19.5 188' 103
2019 02 16 13  11 05 46.214   +27 48 39.52  925905 0.9936 157.9 19.5 190' 103
2019 02 16 14  11 05 32.146   +27 48 33.21  928800 0.9936 158.0 19.5 191' 102
2019 02 16 15  11 05 18.164   +27 48 26.76  931691 0.9937 158.0 19.5 192' 102
2019 02 16 16  11 05 04.269   +27 48 20.18  934577 0.9937 158.1 19.5 194' 102
2019 02 16 17  11 04 50.460   +27 48 13.46  937458 0.9937 158.1 19.5 195' 102
2019 02 16 18  11 04 36.734   +27 48 06.62  940335 0.9938 158.2 19.5 197' 102
2019 02 16 19  11 04 23.093   +27 47 59.65  943206 0.9938 158.2 19.5 198' 102
2019 02 16 20  11 04 09.533   +27 47 52.56  946073 0.9938 158.3 19.5 199' 102
2019 02 16 21  11 03 56.056   +27 47 45.35  948936 0.9938 158.4 19.5 201' 102
2019 02 16 22  11 03 42.659   +27 47 38.01  951794 0.9939 158.4 19.5 202' 102
2019 02 16 23  11 03 29.342   +27 47 30.56  954647 0.9939 158.5 19.5 203' 101
2019 02 17 00  11 03 16.105   +27 47 22.99  957495 0.9939 158.5 19.5 205' 101
2019 02 17 01  11 03 02.945   +27 47 15.30  960339 0.9940 158.6 19.6 206' 101
2019 02 17 02  11 02 49.863   +27 47 07.50  963179 0.9940 158.6 19.6 207' 101
2019 02 17 03  11 02 36.857   +27 46 59.59  966014 0.9940 158.7 19.6 208' 101
2019 02 17 04  11 02 23.927   +27 46 51.56  968844 0.9940 158.7 19.6 210' 101
2019 02 17 05  11 02 11.072   +27 46 43.43  971670 0.9941 158.8 19.6 211' 101
2019 02 17 06  11 01 58.291   +27 46 35.19  974492 0.9941 158.8 19.6 212' 101
2019 02 17 07  11 01 45.583   +27 46 26.85  977309 0.9941 158.9 19.6 214' 101
2019 02 17 08  11 01 32.948   +27 46 18.40  980122 0.9941 158.9 19.6 215' 101
2019 02 17 09  11 01 20.385   +27 46 09.85  982931 0.9942 159.0 19.6 216' 100
2019 02 17 10  11 01 07.893   +27 46 01.20  985735 0.9942 159.0 19.6 218' 100
2019 02 17 11  11 00 55.471   +27 45 52.45  988535 0.9942 159.1 19.6 219' 100
2019 02 17 12  11 00 43.118   +27 45 43.60  991331 0.9943 159.1 19.6 220' 100
2019 02 17 13  11 00 30.835   +27 45 34.66  994122 0.9943 159.2 19.6 221' 100
2019 02 17 14  11 00 18.620   +27 45 25.62  996909 0.9943 159.2 19.6 223' 100
2019 02 17 15  11 00 06.472   +27 45 16.48  999692 0.9943 159.2 19.6 224' 100
2019 02 17 16  10 59 54.390   +27 45 07.26  .00670 0.9944 159.3 19.6 225' 100
2019 02 17 17  10 59 42.375   +27 44 57.94  .00672 0.9944 159.3 19.6 226' 100
2019 02 17 18  10 59 30.426   +27 44 48.53  .00674 0.9944 159.4 19.6 228' 100
2019 02 17 19  10 59 18.541   +27 44 39.04  .00676 0.9945 159.4 19.6 229' 100
2019 02 17 20  10 59 06.720   +27 44 29.45  .00678 0.9945 159.5 19.6 230' 100
2019 02 17 21  10 58 54.962   +27 44 19.78  .00679 0.9945 159.5 19.6 231'  99
2019 02 17 22  10 58 43.267   +27 44 10.03  .00681 0.9945 159.6 19.7 233'  99